Weather History for KDMW - March, 2013

Change the Weather History Date:

Thursday, March 21, 2013

  Actual Average (KTHV) Record (KTHV)
Temperature  
Mean Temperature 30 °F -  
Max Temperature 35 °F 0 °F 68 °F (2012)
Min Temperature 26 °F - 16 °F (2009)
Degree Days  
Heating Degree Days 34    
Moisture  
Dew Point 12 °F    
Average Humidity 48    
Maximum Humidity 86    
Minimum Humidity 25    
Precipitation  
Precipitation 0.00 in - - ()
Sea Level Pressure  
Sea Level Pressure 29.79 in    
Wind  
Wind Speed 8 mph (NW)    
Max Wind Speed 17 mph    
Max Gust Speed 26 mph    
Visibility 10 miles    
Events Snow    
Averages and records for this station are not official NWS values.
T = Trace of Precipitation, MM = Missing Value Source: NWS Daily Summary

Daily Weather History Graph

Daily Weather History Graph

Search for Another Location

Airport or City:

Trip Planner

Search our weather history database for the weather conditions in past years. The results will help you decide how hot, cold, wet, or windy it might be!

Date:

Astronomy

Mar. 21, 2013 Rise Set
Actual Time 7:09 AM EDT 7:21 PM EDT
Civil Twilight 6:42 AM EDT 7:48 PM EDT
Nautical Twilight 6:11 AM EDT 8:19 PM EDT
Astronomical Twilight 5:39 AM EDT 8:51 PM EDT
Moon 1:50 PM EDT (3/21) 3:28 AM EDT (3/21)
Length of Visible Light 13h 05m
Length of Day
12h 11m
Waxing Gibbous, 68% of the Moon is Illuminated
Mar 21
Waxing Gibbous
Mar 27
Full
Apr 3
Last Quarter
Apr 10
New
Apr 18
First Quarter

Hourly Weather History & Observations

Time (EDT) Temp. Windchill Dew Point Humidity Pressure Visibility Wind Dir Wind Speed Gust Speed Precip Events Conditions
12:05 AM 35.6 °F 30.7 °F 24.8 °F 65% 29.80 in 10.0 mi North 5.8 mph - N/A   Mostly Cloudy
12:25 AM 35.6 °F 30.7 °F 24.8 °F 65% 29.81 in 10.0 mi North 5.8 mph - N/A   Mostly Cloudy
12:45 AM 35.6 °F 29.9 °F 23.0 °F 60% 29.81 in 10.0 mi North 6.9 mph - N/A   Overcast
1:05 AM 35.6 °F 29.9 °F 21.2 °F 56% 29.81 in 10.0 mi North 6.9 mph - N/A   Mostly Cloudy
1:25 AM 35.6 °F 29.9 °F 21.2 °F 56% 29.81 in 10.0 mi North 6.9 mph - N/A   Overcast
1:45 AM 35.6 °F 29.2 °F 21.2 °F 56% 29.81 in 10.0 mi North 8.1 mph - N/A   Overcast
2:05 AM 33.8 °F 25.3 °F 24.8 °F 70% 29.82 in 7.0 mi North 11.5 mph - N/A Snow Light Snow
2:25 AM 32.0 °F 24.2 °F 24.8 °F 75% 29.82 in 5.0 mi NNE 9.2 mph - N/A Snow Light Snow
2:45 AM 30.2 °F 22.6 °F 26.6 °F 86% 29.81 in 7.0 mi North 8.1 mph - N/A Snow Light Snow
3:05 AM 30.2 °F 25.4 °F 26.6 °F 86% 29.80 in 10.0 mi North 4.6 mph - N/A Snow Light Snow
3:25 AM 30.2 °F 25.4 °F 24.8 °F 80% 29.80 in 10.0 mi NNE 4.6 mph - N/A Snow Light Snow
3:45 AM 30.2 °F - 24.8 °F 80% 29.79 in 10.0 mi Calm Calm - N/A   Overcast
4:05 AM 30.2 °F 24.3 °F 19.4 °F 64% 29.79 in 10.0 mi NNW 5.8 mph - N/A   Overcast
4:25 AM 32.0 °F 27.5 °F 17.6 °F 55% 29.78 in 10.0 mi NW 4.6 mph - N/A   Overcast
5:05 AM 30.2 °F 26.7 °F 17.6 °F 60% 29.77 in 10.0 mi NW 3.5 mph - N/A   Overcast
5:25 AM 30.2 °F 25.4 °F 17.6 °F 60% 29.77 in 10.0 mi NNW 4.6 mph - N/A   Overcast
5:45 AM 30.2 °F 26.7 °F 17.6 °F 60% 29.77 in 10.0 mi NNW 3.5 mph - N/A   Overcast
6:05 AM 30.2 °F 25.4 °F 15.8 °F 55% 29.78 in 10.0 mi NNW 4.6 mph - N/A   Overcast
6:25 AM 30.2 °F 25.4 °F 15.8 °F 55% 29.78 in 10.0 mi NNW 4.6 mph - N/A   Overcast
7:05 AM 28.4 °F 23.3 °F 15.8 °F 59% 29.78 in 10.0 mi NW 4.6 mph - N/A   Overcast
7:25 AM 28.4 °F 21.2 °F 15.8 °F 59% 29.79 in 10.0 mi WNW 6.9 mph - N/A   Overcast
7:45 AM 28.4 °F 22.2 °F 15.8 °F 59% 29.79 in 10.0 mi WNW 5.8 mph - N/A   Overcast
8:05 AM 28.4 °F 23.3 °F 12.2 °F 51% 29.79 in 10.0 mi WNW 4.6 mph - N/A   Overcast
8:25 AM 28.4 °F 22.2 °F 12.2 °F 51% 29.79 in 10.0 mi WNW 5.8 mph - N/A   Overcast
8:45 AM 28.4 °F 20.4 °F 12.2 °F 51% 29.79 in 10.0 mi WNW 8.1 mph - N/A   Overcast
9:05 AM 30.2 °F 21.9 °F 12.2 °F 47% 29.78 in 10.0 mi WNW 9.2 mph - N/A   Overcast
9:25 AM 30.2 °F 22.6 °F 12.2 °F 47% 29.78 in 10.0 mi NW 8.1 mph - N/A   Overcast
10:05 AM 30.2 °F 25.4 °F 10.4 °F 44% 29.78 in 10.0 mi NW 4.6 mph - N/A   Mostly Cloudy
10:25 AM 30.2 °F 21.9 °F 8.6 °F 40% 29.77 in 10.0 mi WNW 9.2 mph 18.4 mph N/A   Overcast
10:45 AM 30.2 °F 21.3 °F 8.6 °F 40% 29.77 in 10.0 mi NW 10.4 mph 17.3 mph N/A   Mostly Cloudy
11:05 AM 30.2 °F 20.8 °F 8.6 °F 40% 29.77 in 10.0 mi NW 11.5 mph - N/A   Overcast
11:25 AM 30.2 °F 21.9 °F 8.6 °F 40% 29.77 in 10.0 mi NW 9.2 mph 17.3 mph N/A   Overcast
11:45 AM 30.2 °F 20.8 °F 8.6 °F 40% 29.77 in 10.0 mi WNW 11.5 mph 17.3 mph N/A   Overcast
12:05 PM 32.0 °F 24.8 °F 10.4 °F 41% 29.76 in 10.0 mi NW 8.1 mph 18.4 mph N/A   Mostly Cloudy
12:25 PM 30.2 °F 20.8 °F 15.8 °F 55% 29.76 in 10.0 mi WNW 11.5 mph 20.7 mph N/A   Overcast
12:45 PM 32.0 °F 22.5 °F 14.0 °F 48% 29.76 in 10.0 mi WNW 12.7 mph 19.6 mph N/A   Overcast
1:05 PM 30.2 °F 22.6 °F 12.2 °F 47% 29.76 in 10.0 mi NW 8.1 mph - N/A   Overcast
1:25 PM 30.2 °F 23.4 °F 17.6 °F 60% 29.76 in 10.0 mi NNW 6.9 mph - N/A Snow Light Snow
1:45 PM 30.2 °F 21.9 °F 10.4 °F 44% 29.75 in 10.0 mi NNW 9.2 mph - N/A   Overcast
2:05 PM 32.0 °F 23.0 °F 6.8 °F 35% 29.74 in 10.0 mi NW 11.5 mph 18.4 mph N/A   Overcast
2:25 PM 33.8 °F 24.3 °F 5.0 °F 30% 29.74 in 10.0 mi WNW 13.8 mph 19.6 mph N/A   Mostly Cloudy
2:45 PM 33.8 °F 23.9 °F 5.0 °F 30% 29.73 in 10.0 mi WNW 15.0 mph 23.0 mph N/A   Mostly Cloudy
3:05 PM 33.8 °F 23.9 °F 3.2 °F 28% 29.73 in 10.0 mi WNW 15.0 mph 19.6 mph N/A   Mostly Cloudy
3:25 PM 33.8 °F 27.0 °F 3.2 °F 28% 29.73 in 10.0 mi WNW 8.1 mph 19.6 mph N/A   Mostly Cloudy
3:45 PM 33.8 °F 23.2 °F 3.2 °F 28% 29.74 in 10.0 mi WNW 17.3 mph 23.0 mph N/A   Mostly Cloudy
4:05 PM 33.8 °F 24.8 °F 1.4 °F 25% 29.73 in 10.0 mi WNW 12.7 mph 21.9 mph N/A   Mostly Cloudy
4:25 PM 33.8 °F 23.2 °F 1.4 °F 25% 29.74 in 10.0 mi West 17.3 mph 23.0 mph N/A   Mostly Cloudy
4:45 PM 33.8 °F 24.3 °F 1.4 °F 25% 29.74 in 10.0 mi WNW 13.8 mph 21.9 mph N/A   Mostly Cloudy
5:05 PM 32.0 °F 20.8 °F 3.2 °F 30% 29.75 in 10.0 mi WNW 17.3 mph 26.5 mph N/A   Overcast
5:25 PM 32.0 °F 21.6 °F 3.2 °F 30% 29.75 in 10.0 mi NW 15.0 mph 19.6 mph N/A   Overcast
5:45 PM 30.2 °F 19.8 °F 3.2 °F 32% 29.76 in 10.0 mi WNW 13.8 mph 23.0 mph N/A   Overcast
6:05 PM 30.2 °F 19.8 °F 3.2 °F 32% 29.77 in 10.0 mi NW 13.8 mph 21.9 mph N/A   Overcast
6:25 PM 30.2 °F 21.3 °F 6.8 °F 37% 29.78 in 10.0 mi NW 10.4 mph 18.4 mph N/A   Overcast
7:05 PM 30.2 °F 19.8 °F 3.2 °F 32% 29.79 in 10.0 mi WNW 13.8 mph 19.6 mph N/A   Mostly Cloudy
7:25 PM 30.2 °F 21.3 °F 8.6 °F 40% 29.80 in 10.0 mi WNW 10.4 mph 18.4 mph N/A   Overcast
7:45 PM 28.4 °F 19.7 °F 6.8 °F 40% 29.81 in 10.0 mi WNW 9.2 mph 18.4 mph N/A   Overcast
8:05 PM 28.4 °F 19.7 °F 6.8 °F 40% 29.81 in 10.0 mi WNW 9.2 mph 18.4 mph N/A   Overcast
8:25 PM 28.4 °F 19.7 °F 6.8 °F 40% 29.82 in 10.0 mi WNW 9.2 mph - N/A   Overcast
8:45 PM 28.4 °F 19.1 °F 8.6 °F 43% 29.82 in 10.0 mi WNW 10.4 mph - N/A   Overcast
9:05 PM 28.4 °F 21.2 °F 8.6 °F 43% 29.83 in 10.0 mi WNW 6.9 mph - N/A   Overcast
9:25 PM 28.4 °F 21.2 °F 8.6 °F 43% 29.84 in 10.0 mi WNW 6.9 mph - N/A   Overcast
9:45 PM 26.6 °F 18.2 °F 8.6 °F 47% 29.84 in 10.0 mi West 8.1 mph - N/A   Mostly Cloudy
10:05 PM 26.6 °F 17.5 °F 8.6 °F 47% 29.84 in 10.0 mi West 9.2 mph - N/A   Mostly Cloudy
10:25 PM 26.6 °F 18.2 °F 8.6 °F 47% 29.84 in 10.0 mi West 8.1 mph - N/A   Mostly Cloudy
10:45 PM 26.6 °F 20.0 °F 10.4 °F 51% 29.84 in 10.0 mi West 5.8 mph - N/A   Scattered Clouds
11:05 PM 26.6 °F 19.1 °F 10.4 °F 51% 29.84 in 10.0 mi West 6.9 mph - N/A   Mostly Cloudy
11:25 PM 26.6 °F 19.1 °F 8.6 °F 47% 29.84 in 10.0 mi West 6.9 mph - N/A   Scattered Clouds
11:45 PM 26.6 °F 20.0 °F 10.4 °F 51% 29.85 in 10.0 mi West 5.8 mph - N/A   Scattered Clouds